Weather Roundup
Issued by NWS Chicago, IL

Home | Current Version | Previous Version | Text Only | Print | Product List | Glossary Off
Versions: 1 2 3 4 5 6 7 8 9 10 11 12 13 14 15 16 17 18 19 20 21 22 23 24 25 26 27 28 29 30 31 32 33 34 35 36 37 38 39 40 41 42 43 44 45 46 47 48 49 50

000
NZUS59 KLOT 041802
HRRLOT

CHICAGO AREA WEATHER ROUNDUP
NATIONAL WEATHER SERVICE CHICAGO/ROMEOVILLE IL
100 PM CDT MON MAY 04 2015

NOTE: "FAIR" INDICATES FEW OR NO CLOUDS BELOW 12,000 FEET WITH NO
SIGNIFICANT WEATHER AND/OR OBSTRUCTIONS TO VISIBILITY.

* THESE STATIONS ARE NOT UNDER NWS QUALITY CONTROL. THEY ALSO MAY NOT
  REPORT WEATHER SUCH AS PRECIPITATION OR FOG.

ILZ005-006-012>014-019>023-041900-
NORTHEAST ILLINOIS

CITY           SKY/WX    TMP DP  RH WIND       PRES   REMARKS
OHARE          CLOUDY    70  57  63 W3        30.10R
6HR MIN TEMP:  59; 6HR MAX TEMP:  70;

MIDWAY         CLOUDY    73  58  59 VRB6      30.10S
6HR MIN TEMP:  65; 6HR MAX TEMP:  74;

AURORA         CLOUDY    69  58  67 W6        30.12R
6HR MIN TEMP:  61; 6HR MAX TEMP:  70;

WAUKEGAN       PTSUNNY   69  58  67 E8        30.10S
6HR MIN TEMP:  60; 6HR MAX TEMP:  69;

DUPAGE AIRPORT PTSUNNY   71  60  68 W6        30.11R
6HR MIN TEMP:  61; 6HR MAX TEMP:  71;

WHEELING       PTSUNNY   71  57  61 VRB7      30.11S
6HR MIN TEMP:  62; 6HR MAX TEMP:  72;

NORTHERLY IS     N/A     61  54  77 E9          N/A
$$

WIZ051-052-058>065-066-070>072-041900-
SOUTHEAST WISCONSIN

CITY           SKY/WX    TMP DP  RH WIND       PRES   REMARKS
MILWAUKEE      CLOUDY    65  54  67 NE10      30.12R
6HR MIN TEMP:  60; 6HR MAX TEMP:  68;

KENOSHA*       CLOUDY    66  58  75 NE13      30.12R
RACINE*        PTSUNNY   68  57  68 E8        30.14R
WAUKESHA       PTSUNNY   66  55  68 N7        30.13R
$$

INZ001>003-010>013-019-020-041900-
NORTHWEST INDIANA

CITY           SKY/WX    TMP DP  RH WIND       PRES   REMARKS
GARY*          PTSUNNY   72 N/A N/A SW10      30.11F
MICHIGAN CITY* NOT AVBL
RENSSELAER*    NOT AVBL
$$

LMZ740>746-041900-
SOUTHERN LAKE MICHIGAN

STATION/POSITION TIME  SKY/WX   TEMP WIND        PRES    VSBY
                                AIR  DIR/SP/G
                 (UTC)          (F)  (DEG/KT/KT) (MB)    (MI)
HARRISON CRIB    1700            67  300/  9/ 11   N/A
BURNHAM HARBOR   1800            60  100/  6/ 10   N/A
CALUMET HARBOR   1700            70  200/  4/  9   N/A
BURNS HARBOR     1700            62  330/  3/  5 1020.3R
MICHIGAN CITY    1700            59  240/  8/  9   N/A
$$

ABBREVIATIONS USED IN REMARKS
   TC - TEMPERATURE IN CELSIUS
  WCI - WIND CHILL INDEX
   HX - HEAT INDEX
  VSB - VISIBILITY
$$


USA.gov is the U.S. government's official web portal to all federal, state and local government web resources and services.